Torna al catalogo

COSMOS 1823 DEB

AttivoLEO
NORAD 18727·DEBRIS·🇷🇺 Russia

Lanciato Feb 20, 1987 da Plesetsk Cosmodrome

Loading…

Prossimi Passaggi (prossime 24 ore)

TLE

AggiornatoSource: Space-Track

Epoca: Sep 14, 2026, 09:55 UTC

1 18727U 87020E   26257.41362589  .00000027  00000-0  24603-3 0  9999
2 18727  73.3562 245.8371 0087543 162.2208 271.5624 12.65208653788111

Traccia COSMOS 1823 DEB in tempo reale con AllMySat

Download on the App Store